When you browse on this site, cookies collect data to enhance your experience and personalize the content and advertising you see.
Visit our Privacy Policy to learn more. By continuing to use the site, you agree to this use of cookies and data.
  • In Latvia
  • List of Countries
  • For 7 days
  • Water Temperature
  • Weather Map
  • Weather Widgets
  • user-avatar
    Login

    Hourly Weather Mafeteng

    Today, 20 January, Monday

    Time Temperature Precipitation Wind Pressure Humidity
    00:00 +19°C° 0 mm 2 mps 627 mmHg 66%
    01:00 +18°C° 0 mm 2 mps 626 mmHg 69%
    02:00 +18°C° 0 mm 1 mps 626 mmHg 73%
    03:00 +16°C° 0 mm 1 mps 626 mmHg 74%
    04:00 +16°C° 0 mm 1 mps 626 mmHg 75%
    05:00 +15°C° 0 mm 1 mps 626 mmHg 76%
    06:00 +18°C° 0 mm 1 mps 627 mmHg 71%
    07:00 +19°C° 0 mm 1 mps 628 mmHg 66%
    08:00 +21°C° 0 mm 1 mps 628 mmHg 61%
    09:00 +21°C° 0 mm 2 mps 628 mmHg 56%
    10:00 +24°C° 0 mm 3 mps 629 mmHg 50%
    11:00 +26°C° 0 mm 3 mps 629 mmHg 45%
    12:00 +27°C° 0.1 mm 4 mps 629 mmHg 40%
    13:00 +29°C° 0.1 mm 4 mps 628 mmHg 35%
    14:00 +30°C° 0.1 mm 4 mps 628 mmHg 30%
    15:00 +30°C° 0 mm 4 mps 628 mmHg 29%
    16:00 +30°C° 0 mm 4 mps 628 mmHg 27%
    17:00 +30°C° 0 mm 4 mps 627 mmHg 26%
    18:00 +29°C° 0 mm 4 mps 627 mmHg 29%
    19:00 +27°C° 0 mm 3 mps 627 mmHg 33%
    20:00 +25°C° 0 mm 2 mps 626 mmHg 36%
    21:00 +25°C° 0.1 mm 2 mps 627 mmHg 37%
    22:00 +24°C° 0.1 mm 2 mps 627 mmHg 38%
    23:00 +24°C° 0.1 mm 2 mps 627 mmHg 39%

    Tomorrow, 21 January, Tuesday

    Time Temperature Precipitation Wind Pressure Humidity
    00:00 +22°C° 0 mm 3 mps 626 mmHg 46%
    01:00 +21°C° 0 mm 3 mps 626 mmHg 52%
    02:00 +20°C° 0 mm 4 mps 625 mmHg 59%
    03:00 +19°C° 0.2 mm 4 mps 625 mmHg 64%
    04:00 +18°C° 0.2 mm 4 mps 625 mmHg 69%
    05:00 +18°C° 0.2 mm 4 mps 625 mmHg 74%
    06:00 +19°C° 0.1 mm 4 mps 626 mmHg 70%
    07:00 +20°C° 0.1 mm 5 mps 626 mmHg 66%
    08:00 +21°C° 0.1 mm 5 mps 627 mmHg 62%
    09:00 +23°C° 0.1 mm 6 mps 627 mmHg 54%
    10:00 +27°C° 0.1 mm 7 mps 628 mmHg 45%
    11:00 +29°C° 0.1 mm 8 mps 628 mmHg 37%
    12:00 +27°C° 0.9 mm 7 mps 627 mmHg 46%
    13:00 +23°C° 0.9 mm 7 mps 625 mmHg 55%
    14:00 +21°C° 0.9 mm 6 mps 624 mmHg 64%
    15:00 +22°C° 0.3 mm 6 mps 624 mmHg 60%
    16:00 +22°C° 0.3 mm 5 mps 624 mmHg 57%
    17:00 +23°C° 0.3 mm 4 mps 625 mmHg 53%
    18:00 +22°C° 0 mm 4 mps 625 mmHg 58%
    19:00 +20°C° 0 mm 4 mps 624 mmHg 63%
    20:00 +19°C° 0 mm 3 mps 624 mmHg 68%
    21:00 +19°C° 0 mm 3 mps 624 mmHg 70%
    22:00 +18°C° 0 mm 3 mps 624 mmHg 71%
    23:00 +17°C° 0 mm 2 mps 625 mmHg 72%

    Day after tomorrow, 22 January, Wednesday

    Time Temperature Precipitation Wind Pressure Humidity
    00:00 +17°C° 0 mm 2 mps 624 mmHg 73%
    01:00 +17°C° 0 mm 2 mps 624 mmHg 73%
    02:00 +16°C° 0 mm 2 mps 623 mmHg 74%
    03:00 +16°C° 0 mm 2 mps 623 mmHg 75%
    04:00 +16°C° 0 mm 2 mps 623 mmHg 77%
    05:00 +15°C° 0 mm 2 mps 623 mmHg 78%
    06:00 +17°C° 0 mm 4 mps 624 mmHg 73%
    07:00 +17°C° 0 mm 5 mps 624 mmHg 67%
    08:00 +20°C° 0 mm 6 mps 625 mmHg 61%
    09:00 +22°C° 0 mm 6 mps 625 mmHg 50%
    10:00 +26°C° 0 mm 6 mps 626 mmHg 39%
    11:00 +28°C° 0 mm 5 mps 626 mmHg 28%
    12:00 +29°C° 0 mm 6 mps 626 mmHg 25%
    13:00 +29°C° 0 mm 6 mps 625 mmHg 22%
    14:00 +30°C° 0 mm 7 mps 625 mmHg 18%
    15:00 +31°C° 0 mm 8 mps 624 mmHg 17%
    16:00 +31°C° 0 mm 8 mps 624 mmHg 16%
    17:00 +31°C° 0 mm 9 mps 624 mmHg 15%
    18:00 +28°C° 0 mm 7 mps 624 mmHg 20%
    19:00 +26°C° 0 mm 6 mps 623 mmHg 25%
    20:00 +22°C° 0 mm 4 mps 623 mmHg 30%
    21:00 +21°C° 0 mm 3 mps 623 mmHg 38%
    22:00 +19°C° 0 mm 2 mps 623 mmHg 47%
    23:00 +18°C° 0 mm 2 mps 623 mmHg 55%

    23 January, Thursday

    Time Temperature Precipitation Wind Pressure Humidity
    00:00 +18°C° 0 mm 2 mps 623 mmHg 56%
    01:00 +19°C° 0 mm 1 mps 623 mmHg 57%
    02:00 +18°C° 0 mm 1 mps 623 mmHg 58%
    03:00 +16°C° 0 mm 1 mps 623 mmHg 61%
    04:00 +16°C° 0 mm 1 mps 622 mmHg 64%
    05:00 +15°C° 0 mm 1 mps 622 mmHg 67%
    06:00 +17°C° 0 mm 2 mps 623 mmHg 60%
    07:00 +19°C° 0 mm 2 mps 624 mmHg 53%
    08:00 +21°C° 0 mm 3 mps 625 mmHg 45%
    09:00 +24°C° 0 mm 2 mps 626 mmHg 38%
    10:00 +26°C° 0 mm 2 mps 626 mmHg 30%
    11:00 +28°C° 0 mm 2 mps 627 mmHg 23%
    12:00 +28°C° 0 mm 3 mps 626 mmHg 24%
    13:00 +28°C° 0 mm 4 mps 626 mmHg 25%
    14:00 +28°C° 0 mm 5 mps 625 mmHg 26%
    15:00 +26°C° 0.7 mm 5 mps 625 mmHg 34%
    16:00 +25°C° 0.7 mm 4 mps 625 mmHg 41%
    17:00 +22°C° 0.7 mm 4 mps 624 mmHg 49%
    18:00 +21°C° 0.2 mm 4 mps 625 mmHg 53%
    19:00 +20°C° 0.2 mm 4 mps 625 mmHg 58%
    20:00 +19°C° 0.2 mm 4 mps 625 mmHg 62%
    21:00 +18°C° 0 mm 3 mps 625 mmHg 67%
    22:00 +17°C° 0 mm 3 mps 625 mmHg 72%
    23:00 +16°C° 0 mm 2 mps 625 mmHg 77%

    24 January, Friday

    Time Temperature Precipitation Wind Pressure Humidity
    00:00 +16°C° 0 mm 2 mps 625 mmHg 77%
    01:00 +16°C° 0 mm 2 mps 624 mmHg 77%
    02:00 +14°C° 0 mm 3 mps 624 mmHg 77%
    03:00 +14°C° 0 mm 3 mps 624 mmHg 77%
    04:00 +14°C° 0 mm 3 mps 624 mmHg 77%
    05:00 +14°C° 0 mm 3 mps 624 mmHg 77%
    06:00 +17°C° 0.1 mm 4 mps 625 mmHg 71%
    07:00 +17°C° 0.1 mm 5 mps 626 mmHg 65%
    08:00 +20°C° 0.1 mm 5 mps 626 mmHg 58%
    09:00 +19°C° 1.7 mm 5 mps 626 mmHg 62%
    10:00 +19°C° 1.7 mm 5 mps 626 mmHg 67%
    11:00 +19°C° 1.7 mm 6 mps 626 mmHg 71%
    12:00 +20°C° 0.6 mm 5 mps 626 mmHg 65%
    13:00 +20°C° 0.6 mm 4 mps 626 mmHg 59%
    14:00 +21°C° 0.6 mm 4 mps 626 mmHg 53%
    15:00 +20°C° 0.4 mm 5 mps 626 mmHg 54%
    16:00 +18°C° 0.4 mm 7 mps 625 mmHg 56%
    17:00 +17°C° 0.4 mm 9 mps 625 mmHg 57%
    18:00 +17°C° 0 mm 7 mps 625 mmHg 59%
    19:00 +16°C° 0 mm 5 mps 626 mmHg 61%
    20:00 +17°C° 0 mm 3 mps 626 mmHg 63%
    21:00 +16°C° 0.1 mm 3 mps 626 mmHg 68%
    22:00 +15°C° 0.1 mm 4 mps 626 mmHg 73%
    23:00 +14°C° 0.1 mm 4 mps 625 mmHg 77%

    25 January, Saturday

    Time Temperature Precipitation Wind Pressure Humidity
    00:00 +14°C° 0 mm 3 mps 625 mmHg 79%
    01:00 +14°C° 0 mm 2 mps 624 mmHg 81%
    02:00 +14°C° 0 mm 2 mps 623 mmHg 83%
    03:00 +14°C° 0 mm 1 mps 623 mmHg 85%
    04:00 +13°C° 0 mm 1 mps 623 mmHg 87%
    05:00 +13°C° 0 mm 1 mps 623 mmHg 88%
    06:00 +14°C° 0.5 mm 1 mps 624 mmHg 83%
    07:00 +16°C° 0.5 mm 2 mps 625 mmHg 78%
    08:00 +17°C° 0.5 mm 2 mps 625 mmHg 73%
    09:00 +19°C° 1.2 mm 3 mps 626 mmHg 65%
    10:00 +21°C° 1.2 mm 4 mps 626 mmHg 57%
    11:00 +23°C° 1.2 mm 5 mps 626 mmHg 49%
    12:00 +23°C° 1.1 mm 4 mps 626 mmHg 47%
    13:00 +25°C° 1.1 mm 4 mps 626 mmHg 45%
    14:00 +25°C° 1.1 mm 3 mps 625 mmHg 43%
    15:00 +25°C° 0.1 mm 3 mps 625 mmHg 43%
    16:00 +25°C° 0.1 mm 3 mps 625 mmHg 43%
    17:00 +25°C° 0.1 mm 3 mps 625 mmHg 43%
    18:00 +24°C° 0 mm 3 mps 625 mmHg 46%
    19:00 +21°C° 0 mm 3 mps 625 mmHg 49%
    20:00 +20°C° 0 mm 3 mps 625 mmHg 52%
    21:00 +20°C° 0 mm 3 mps 625 mmHg 54%
    22:00 +19°C° 0 mm 3 mps 625 mmHg 57%
    23:00 +18°C° 0 mm 2 mps 625 mmHg 59%
    Show more